• în Republica Moldova
  • Lista ţărilor
  • Pe 7 zile
  • Temperatura apei
  • Hartă satelitară
  • Meteo pe hartă
  • Widget-uri
  • user-avatar
    Intrare

    Meteo pe oră la Sankt Polten

    Astăzi, 22 Ianuarie, Luni

    Timp Temperatura Precipitaţii Vânt Presiune Umiditate
    00:00 -4°C° 0 mm 2 m/s 737 mmHg 93%
    01:00 -3°C° 0 mm 1 m/s 737 mmHg 93%
    02:00 -3°C° 0 mm 1 m/s 737 mmHg 93%
    03:00 -3°C° 0 mm 1 m/s 736 mmHg 92%
    04:00 -4°C° 0 mm 1 m/s 736 mmHg 92%
    05:00 -3°C° 0 mm 1 m/s 736 mmHg 91%
    06:00 -2°C° 0 mm 1 m/s 736 mmHg 89%
    07:00 -2°C° 0 mm 1 m/s 735 mmHg 88%
    08:00 -1°C° 0 mm 1 m/s 735 mmHg 86%
    09:00 0°C° 0 mm 1 m/s 735 mmHg 85%
    10:00 +1°C° 0 mm 1 m/s 735 mmHg 83%
    11:00 +1°C° 0 mm 1 m/s 734 mmHg 82%
    12:00 +1°C° 0 mm 2 m/s 734 mmHg 81%
    13:00 +2°C° 0 mm 2 m/s 733 mmHg 81%
    14:00 +2°C° 0,2 mm 2 m/s 733 mmHg 83%
    15:00 +3°C° 0,2 mm 1 m/s 733 mmHg 85%
    16:00 +2°C° 0,2 mm 1 m/s 733 mmHg 87%
    17:00 +2°C° 0,3 mm 1 m/s 733 mmHg 89%
    18:00 +2°C° 0,3 mm 1 m/s 733 mmHg 90%
    19:00 +2°C° 0,3 mm 1 m/s 733 mmHg 91%
    20:00 +2°C° 0,2 mm 1 m/s 734 mmHg 92%
    21:00 +3°C° 0,2 mm 1 m/s 734 mmHg 94%
    22:00 +3°C° 0,2 mm 1 m/s 734 mmHg 95%
    23:00 +2°C° 0,2 mm 2 m/s 735 mmHg 95%

    Mâine, 23 Ianuarie, Marţi

    Timp Temperatura Precipitaţii Vânt Presiune Umiditate
    00:00 +3°C° 0,2 mm 2 m/s 735 mmHg 96%
    01:00 +3°C° 0,2 mm 2 m/s 735 mmHg 96%
    02:00 +2°C° 0,1 mm 3 m/s 736 mmHg 95%
    03:00 +1°C° 0,1 mm 4 m/s 736 mmHg 94%
    04:00 +2°C° 0,1 mm 5 m/s 737 mmHg 92%
    05:00 +3°C° 0,2 mm 4 m/s 737 mmHg 92%
    06:00 +3°C° 0,2 mm 4 m/s 738 mmHg 92%
    07:00 +3°C° 0,2 mm 4 m/s 738 mmHg 92%
    08:00 +3°C° 0,3 mm 4 m/s 739 mmHg 92%
    09:00 +3°C° 0,3 mm 4 m/s 740 mmHg 92%
    10:00 +3°C° 0,3 mm 4 m/s 741 mmHg 92%
    11:00 +3°C° 0,1 mm 4 m/s 741 mmHg 91%
    12:00 +4°C° 0,1 mm 4 m/s 741 mmHg 91%
    13:00 +4°C° 0,1 mm 3 m/s 742 mmHg 90%
    14:00 +4°C° 0 mm 3 m/s 742 mmHg 91%
    15:00 +4°C° 0 mm 2 m/s 742 mmHg 93%
    16:00 +4°C° 0 mm 2 m/s 743 mmHg 94%
    17:00 +4°C° 0 mm 1 m/s 743 mmHg 94%
    18:00 +4°C° 0 mm 1 m/s 743 mmHg 95%
    19:00 +3°C° 0 mm 1 m/s 744 mmHg 95%
    20:00 +3°C° 0 mm 1 m/s 744 mmHg 94%
    21:00 +3°C° 0 mm 1 m/s 744 mmHg 93%
    22:00 +3°C° 0 mm 1 m/s 744 mmHg 92%
    23:00 +3°C° 0 mm 1 m/s 744 mmHg 92%

    Poimâine, 24 Ianuarie, Miercuri

    Timp Temperatura Precipitaţii Vânt Presiune Umiditate
    00:00 +2°C° 0 mm 1 m/s 744 mmHg 91%
    01:00 +2°C° 0 mm 1 m/s 744 mmHg 90%
    02:00 +2°C° 0,1 mm 1 m/s 744 mmHg 90%
    03:00 +2°C° 0,1 mm 2 m/s 744 mmHg 89%
    04:00 +2°C° 0,1 mm 2 m/s 744 mmHg 88%
    05:00 +2°C° 0,2 mm 2 m/s 744 mmHg 88%
    06:00 +4°C° 0,2 mm 1 m/s 744 mmHg 88%
    07:00 +4°C° 0,2 mm 1 m/s 744 mmHg 88%
    08:00 +5°C° 0,1 mm 1 m/s 744 mmHg 89%
    09:00 +5°C° 0,1 mm 1 m/s 744 mmHg 91%
    10:00 +6°C° 0,1 mm 1 m/s 744 mmHg 92%
    11:00 +7°C° 0 mm 1 m/s 744 mmHg 92%
    12:00 +7°C° 0 mm 1 m/s 744 mmHg 91%
    13:00 +8°C° 0 mm 1 m/s 744 mmHg 91%
    14:00 +8°C° 0 mm 1 m/s 743 mmHg 93%
    15:00 +7°C° 0 mm 1 m/s 743 mmHg 94%
    16:00 +5°C° 0 mm 2 m/s 743 mmHg 95%
    17:00 +5°C° 0 mm 1 m/s 743 mmHg 94%
    18:00 +5°C° 0 mm 1 m/s 743 mmHg 93%
    19:00 +4°C° 0 mm 1 m/s 743 mmHg 92%
    20:00 +4°C° 0 mm 1 m/s 742 mmHg 91%
    21:00 +4°C° 0 mm 1 m/s 742 mmHg 91%
    22:00 +3°C° 0 mm 1 m/s 742 mmHg 90%
    23:00 +3°C° 0 mm 1 m/s 742 mmHg 90%

    25 Ianuarie, Joi

    Timp Temperatura Precipitaţii Vânt Presiune Umiditate
    00:00 +3°C° 0 mm 1 m/s 741 mmHg 89%
    01:00 +3°C° 0 mm 1 m/s 741 mmHg 89%
    02:00 +3°C° 0 mm 1 m/s 741 mmHg 88%
    03:00 +3°C° 0 mm 1 m/s 741 mmHg 88%
    04:00 +3°C° 0 mm 1 m/s 740 mmHg 88%
    05:00 +3°C° 0 mm 1 m/s 740 mmHg 87%
    06:00 +2°C° 0 mm 1 m/s 740 mmHg 87%
    07:00 +2°C° 0 mm 1 m/s 740 mmHg 87%
    08:00 +3°C° 0 mm 1 m/s 740 mmHg 87%
    09:00 +4°C° 0 mm 1 m/s 739 mmHg 88%
    10:00 +5°C° 0 mm 1 m/s 739 mmHg 89%
    11:00 +6°C° 0 mm 1 m/s 738 mmHg 90%
    12:00 +5°C° 0 mm 2 m/s 738 mmHg 90%
    13:00 +6°C° 0 mm 2 m/s 737 mmHg 91%
    14:00 +5°C° 0 mm 2 m/s 737 mmHg 92%
    15:00 +5°C° 0 mm 2 m/s 736 mmHg 94%
    16:00 +4°C° 0 mm 2 m/s 736 mmHg 95%
    17:00 +4°C° 0 mm 1 m/s 736 mmHg 95%
    18:00 +4°C° 0 mm 1 m/s 736 mmHg 95%
    19:00 +3°C° 0 mm 1 m/s 736 mmHg 96%
    20:00 +3°C° 0 mm 1 m/s 736 mmHg 95%
    21:00 +3°C° 0 mm 1 m/s 736 mmHg 94%
    22:00 +3°C° 0 mm 1 m/s 736 mmHg 93%
    23:00 +3°C° 0 mm 1 m/s 736 mmHg 93%

    26 Ianuarie, Vineri

    Timp Temperatura Precipitaţii Vânt Presiune Umiditate
    00:00 +3°C° 0 mm 1 m/s 735 mmHg 92%
    01:00 +2°C° 0 mm 0 m/s 735 mmHg 91%
    02:00 +2°C° 0 mm 0 m/s 735 mmHg 91%
    03:00 +1°C° 0 mm 0 m/s 735 mmHg 90%
    04:00 +1°C° 0 mm 0 m/s 735 mmHg 90%
    05:00 +2°C° 0 mm 0 m/s 735 mmHg 89%
    06:00 +2°C° 0 mm 0 m/s 735 mmHg 89%
    07:00 +2°C° 0 mm 0 m/s 736 mmHg 89%
    08:00 +3°C° 0 mm 0 m/s 736 mmHg 89%
    09:00 +4°C° 0 mm 0 m/s 736 mmHg 88%
    10:00 +4°C° 0 mm 0 m/s 737 mmHg 88%
    11:00 +5°C° 0 mm 0 m/s 737 mmHg 87%
    12:00 +6°C° 0 mm 0 m/s 736 mmHg 86%
    13:00 +7°C° 0 mm 0 m/s 736 mmHg 85%
    14:00 +6°C° 0 mm 0 m/s 737 mmHg 88%
    15:00 +6°C° 0 mm 1 m/s 737 mmHg 90%
    16:00 +6°C° 0 mm 1 m/s 737 mmHg 93%
    17:00 +4°C° 0,1 mm 0 m/s 737 mmHg 94%
    18:00 +4°C° 0,1 mm 0 m/s 738 mmHg 95%
    19:00 +3°C° 0,1 mm 0 m/s 738 mmHg 96%
    20:00 +3°C° 0,3 mm 0 m/s 738 mmHg 96%
    21:00 +4°C° 0,3 mm 1 m/s 739 mmHg 97%
    22:00 +4°C° 0,3 mm 1 m/s 739 mmHg 97%
    23:00 +4°C° 0,7 mm 1 m/s 739 mmHg 97%

    27 Ianuarie, Sâmbătă

    Timp Temperatura Precipitaţii Vânt Presiune Umiditate
    00:00 +4°C° 0,7 mm 1 m/s 740 mmHg 96%
    01:00 +4°C° 0,7 mm 1 m/s 740 mmHg 96%
    02:00 +4°C° 0,6 mm 1 m/s 740 mmHg 96%
    03:00 +3°C° 0,6 mm 2 m/s 741 mmHg 95%
    04:00 +3°C° 0,6 mm 2 m/s 741 mmHg 95%
    05:00 +3°C° 0,2 mm 2 m/s 742 mmHg 95%
    06:00 +4°C° 0,2 mm 1 m/s 742 mmHg 95%
    07:00 +4°C° 0,2 mm 1 m/s 743 mmHg 95%
    08:00 +4°C° 0,3 mm 1 m/s 743 mmHg 94%
    09:00 +3°C° 0,3 mm 2 m/s 744 mmHg 93%
    10:00 +4°C° 0,3 mm 2 m/s 744 mmHg 92%
    11:00 +4°C° 0 mm 2 m/s 745 mmHg 90%
    12:00 +5°C° 0 mm 2 m/s 745 mmHg 89%
    13:00 +5°C° 0 mm 2 m/s 745 mmHg 87%
    14:00 +5°C° 0 mm 2 m/s 745 mmHg 88%
    15:00 +5°C° 0 mm 1 m/s 745 mmHg 88%
    16:00 +5°C° 0 mm 1 m/s 745 mmHg 89%
    17:00 +4°C° 0 mm 1 m/s 746 mmHg 90%
    18:00 +3°C° 0 mm 1 m/s 746 mmHg 91%
    19:00 +2°C° 0 mm 1 m/s 746 mmHg 92%
    20:00 +2°C° 0 mm 1 m/s 747 mmHg 92%
    21:00 +2°C° 0 mm 1 m/s 747 mmHg 92%
    22:00 +1°C° 0 mm 1 m/s 747 mmHg 92%
    23:00 +1°C° 0 mm 1 m/s 747 mmHg 92%
    Arată mai mult